Regional Weather Roundup
Issued by NWS Albany, NY

Home | Current Version | Previous Version | Text Only | Print | Product List | Glossary On
Versions: 1 2 3 4 5 6 7 8 9 10 11 12 13 14 15 16 17 18 19 20 21 22 23 24 25 26 27
000
ASUS41 KALY 011810
RWRALY

NEW YORK STATE HOURLY WEATHER ROUNDUP
NATIONAL WEATHER SERVICE ALBANY NY
200 PM EDT SUN MAY 01 2016

NOTE: "FAIR" INDICATES FEW OR NO CLOUDS BELOW 12,000 FEET WITH NO
SIGNIFICANT WEATHER AND/OR NO OBSTRUCTIONS TO VISIBILITY.

NYZ032-033-038>043-046>054-057>066-NYZ062>081-082-084-011900-
EAST


CITY           SKY/WX    TMP DP  RH WIND       PRES   REMARKS
ALBANY         LGT RAIN  45  41  86 SE10      30.17S FOG
GLENS FALLS    LGT RAIN  47  43  86 SW7       30.17R FOG
POUGHKEEPSIE   LGT RAIN  48  43  82 VRB7      30.15F
NEWBURGH       LGT RAIN  45  45 100 SE9       30.15F FOG
MONTGOMERY     LGT RAIN  46  43  89 CALM      30.14F FOG
WHITE PLAINS   CLOUDY    47  41  80 SE13      30.16S
ISLIP          LGT RAIN  48  44  86 SE12      30.17F
NEW YORK CITY  LGT RAIN  48  45  87 SE9       30.16F
CENTRAL PARK   CLOUDY    48  43  82 VRB3      30.17F
$$

NYZ005>009-017-018-044>046-055-056-011900-
CENTRAL


CITY           SKY/WX    TMP DP  RH WIND       PRES   REMARKS
FULTON         CLOUDY    49  44  83 SE9G17    30.00F
SYRACUSE       CLOUDY    47  42  83 SE10      30.01F
ROME           LGT RAIN  48  47  96 SE13      30.06F FOG
ELMIRA         CLOUDY    52  44  74 S10       29.98F
BINGHAMTON     CLOUDY    42  40  92 S15G21    30.02F
MONTICELLO     CLOUDY    39  39 100 SE10      30.13S WCI  32
$$

NYZ026>034-041>043-087-011900-
NORTH


CITY           SKY/WX    TMP DP  RH WIND       PRES   REMARKS
WATERTOWN      CLOUDY    50  44  80 SE7       30.03F
FORT DRUM      NOT AVBL
MASSENA        LGT RAIN  46  42  86 NE12      30.12F
SARANAC LAKE   LGT RAIN  45  39  79 SE6       30.07F
PLATTSBURGH    LGT RAIN  44  41  89 SE6       30.17F
$$

NYZ001>004-010>016-019>021-085-011900-
WEST


CITY           SKY/WX    TMP DP  RH WIND       PRES   REMARKS
NIAGARA FALLS  CLOUDY    54  49  83 N5        29.92S
BUFFALO        DRIZZLE   54  52  93 N6        29.91S FOG
DUNKIRK        CLOUDY    50  49  96 W7        29.94R FOG
JAMESTOWN      CLOUDY    57  54  88 SW7       29.91S
WELLSVILLE     CLOUDY    58  52  80 SW12G22   29.94S
ROCHESTER      DRIZZLE   52  48  86 SE10      29.94S FOG
PENN YAN       CLOUDY    54  47  77 S13       29.95F
$$

             KEY
       WCI = WIND CHILL INDEX
       VSB = VISIBILITY
       HX  = HEAT INDEX
$$




USA.gov is the U.S. government's official web portal to all federal, state and local government web resources and services.